Flag for China Weather past 2 weeks in Zhengzhou, Henan, China

Now
70 °F

Light rain. Fog.


Feels Like: 70 °F
Forecast: 67 / 72 °F
Wind: 1 mph from North

Location: Zhengzhou Airport

Current Time: Sep 4, 2015 at 7:40:34 AM

Latest Report: Sep 4, 2015 at 7:00 AM


Visibility: 1 mi

Pressure: 29.92 "Hg

Humidity: 94%

Dew point: 68 °F

Location of ZhengzhouLocation

Historic Weather in Zhengzhou — Graph

°F

Zhengzhou temperature yesterday

Maximum temperature yesterday: 86 °F (at 12:00 PM)
Minimum temperature yesterday: 64 °F (at 3:00 AM)
Average temperature yesterday: 75 °F

Past Weeks' High & Low Weather Summary

 TemperatureHumidityPressure
High91 °F (Aug 22, 1:00 PM)100% (Aug 28, 5:00 AM)30.01 "Hg (Aug 28, 5:00 AM)
Low64 °F (Sep 3, 3:00 AM)40% (Aug 25, 4:00 PM)29.62 "Hg (Aug 22, 3:00 PM)
Average76 °F74%29.83 "Hg
* Reported Aug 20 6:00 AM — Sep 4 6:00 AM, Zhengzhou, Weather by CustomWeather, © 2015

Note: Actual official high and low records may vary slightly from our data, if they occured in-between our weather recording intervals... More about our weather records

Advertising

Zhengzhou weather history for previous 24 hours

 ConditionsComfort  
Time TempWeatherWind HumidityBarometerVisibility
6:00 AM
Fri, Sep 4
70 °FLight rain. Fog.1 mph88%29.89 "Hg2 mi
5:00 AM72 °FFog.3 mph88%29.89 "Hg3 mi
4:00 AM72 °FLight rain. Fog.1 mph83%29.92 "Hg3 mi
3:00 AM72 °FClear.1 mph83%29.92 "Hg4 mi
2:00 AM72 °FClear.1 mph83%29.92 "Hg4 mi
1:00 AM72 °FFog.1 mph83%29.95 "Hg3 mi
12:00 AM73 °FClear.3 mph78%29.95 "Hg4 mi
11:00 PM
Thu, Sep 3
72 °FClear.1 mph83%29.95 "Hg4 mi
10:00 PM72 °FClear.1 mph83%29.95 "Hg4 mi
9:00 PM72 °FClear.1 mph83%29.98 "Hg5 mi
8:00 PM75 °FClear.3 mph74%29.95 "Hg10 mi
7:00 PM77 °FClear.6 mph65%29.92 "Hg10 mi
6:00 PM79 °FPassing clouds.8 mph65%29.92 "HgN/A
5:00 PM82 °FPassing clouds.6 mph55%29.92 "HgN/A
4:00 PM84 °FPassing clouds.8 mph51%29.95 "HgN/A
3:00 PM84 °FScattered clouds.8 mph48%29.95 "HgN/A
2:00 PM84 °FPartly sunny.8 mph48%29.95 "HgN/A
1:00 PM82 °FPartly sunny.6 mph51%29.98 "HgN/A
12:00 PM86 °FPassing clouds.6 mph46%29.98 "HgN/A
11:00 AM84 °FPassing clouds.3 mph48%30.01 "HgN/A
10:00 AM81 °FSunny.3 mph54%30.01 "Hg10 mi
9:00 AM79 °FClear.3 mph61%30.01 "Hg4 mi
8:00 AM73 °FFog.3 mph78%30.01 "Hg3 mi
7:00 AM70 °FFog.3 mph83%30.01 "Hg3 mi
Weather by CustomWeather, © 2015

See weather overviewHow to use our weather pages